Starlink 32384

operational
NORAD ID: 62146 Int'l Des: 2024-224 Owner: SPXS Country: US Constellation: starlink
LEOCIRCULAR

Über Starlink 32384

Beschreibung wird geladen...

Live-Position

3D-Globus wird geladen...

Nächste Überflüge

Höhenverlauf

Altitude vs Time

uPlot chart will show altitude changes over time

Zweizeiliger Elementsatz

1 62146U 24224H 25257.96323818 .00019343 00000-0 71057-3 0 9997
2 62146 43.0002 70.6256 0001380 266.4046 93.6648 15.27581368 45603
Epoch: 14. Sept. 2025 • Age: 26 hours

Aktueller Status

Höhe 486.5 km
Geschwindigkeit 7.62 km/s
Subsatellitenpunkt -18.58°S, 106.69°W
Startdatum 30. Nov. 2024
Alter 0.7 years
Typ internet

Technische Details

Klassifizierung Payload
Masse 730.00 kg
Trockenmasse 700.00 kg
Gesamtmasse 730.00 kg
Länge 0.30 m
Durchmesser 4.10 m
Spannweite 29.00 m
Form Box + pan
Hersteller SPXS
Bus-Typ Starlink V2M
Phasenstatus In Orbit
Besitzer/Staat SPXS/US

Große Konstellationen

Loading constellations...